Weather History for Punta Gorda, FL

Change the Weather History Date:

Sunday, May 11, 2014

  Actual Average Record
Temperature  
Mean Temperature 82 °F -  
Max Temperature 91 °F 86 °F 97 °F (2012)
Min Temperature 73 °F 62 °F 59 °F (2001)
Cooling Degree Days 17    
Growing Degree Days 32 (Base 50)    
Moisture  
Dew Point 68 °F    
Average Humidity 67    
Maximum Humidity 91    
Minimum Humidity 43    
Precipitation  
Precipitation 0.00 in - - ()
Sea Level Pressure  
Sea Level Pressure 30.10 in    
Wind  
Wind Speed 7 mph (ESE)    
Max Wind Speed 13 mph    
Max Gust Speed -    
Visibility 10 miles    
Events      
Averages and records for this station are not official NWS values.
T = Trace of Precipitation, MM = Missing Value Source: NWS Daily Summary

Daily Weather History Graph

Daily Weather History Graph

Search for Another Location

Airport:

Trip Planner

Search our weather history database for the weather conditions in past years. The results will help you decide how hot, cold, wet, or windy it might be!

Date:

Astronomy

May. 11, 2014 Rise Set
Actual Time 6:42 AM EDT 8:06 PM EDT
Civil Twilight 6:17 AM EDT 8:31 PM EDT
Nautical Twilight 5:47 AM EDT 9:01 PM EDT
Astronomical Twilight 5:16 AM EDT 9:32 PM EDT
Moon 5:17 PM EDT (5/11) 4:27 AM EDT (5/11)
Length of Visible Light 14h 13m
Length of Day
13h 23m
Waxing Gibbous, 89% of the Moon is Illuminated
May 11
Waxing Gibbous
May 14
Full
May 21
Last Quarter
May 28
New
Jun 5
First Quarter

Hourly Weather History & Observations

Time (EDT) Temp. Heat Index Dew Point Humidity Pressure Visibility Wind Dir Wind Speed Gust Speed Precip Events Conditions
12:12 AM 75.9 °F - 71.1 °F 85% 30.12 in - SE 4.6 mph - N/A   Mostly Cloudy
12:53 AM 78.1 °F - 70.0 °F 76% 30.11 in - ESE 9.2 mph - N/A   Scattered Clouds
1:53 AM 75.9 °F - 70.0 °F 82% 30.10 in - ESE 8.1 mph - N/A   Clear
2:53 AM 75.0 °F - 70.0 °F 84% 30.08 in - SE 6.9 mph - N/A   Clear
3:53 AM 75.0 °F - 70.0 °F 84% 30.08 in - ESE 6.9 mph - N/A   Clear
4:53 AM 75.0 °F - 70.0 °F 84% 30.09 in - Calm Calm - N/A   Clear
5:53 AM 73.0 °F - 70.0 °F 90% 30.10 in - ESE 5.8 mph - N/A   Clear
6:53 AM 73.0 °F - 70.0 °F 90% 30.12 in - East 3.5 mph - N/A   Clear
7:53 AM 73.9 °F - 71.1 °F 91% 30.14 in - ENE 3.5 mph - N/A   Clear
8:53 AM 75.9 °F - 72.0 °F 87% 30.14 in - ESE 8.1 mph - N/A   Clear
9:53 AM 80.1 °F 83.6 °F 71.1 °F 74% 30.15 in - SSE 11.5 mph - N/A   Clear
10:53 AM 82.0 °F 85.9 °F 70.0 °F 67% 30.16 in - SE 12.7 mph - N/A   Clear
11:53 AM 86.0 °F 90.1 °F 69.1 °F 57% 30.16 in 10.0 mi SE 9.2 mph - N/A   Clear
12:53 PM 86.0 °F 89.4 °F 68.0 °F 55% 30.14 in 10.0 mi SE 10.4 mph - N/A   Clear
1:53 PM 89.1 °F 92.1 °F 66.9 °F 48% 30.12 in 10.0 mi East 8.1 mph - N/A   Partly Cloudy
2:53 PM 88.0 °F 90.3 °F 66.0 °F 48% 30.10 in 10.0 mi East 6.9 mph - N/A   Partly Cloudy
3:53 PM 91.0 °F 93.8 °F 66.0 °F 44% 30.07 in 10.0 mi East 10.4 mph - N/A   Scattered Clouds
4:53 PM 89.1 °F 90.3 °F 64.0 °F 43% 30.05 in 10.0 mi ESE 12.7 mph - N/A   Mostly Cloudy
5:53 PM 89.1 °F 90.3 °F 64.0 °F 43% 30.04 in - ESE 6.9 mph - N/A   Partly Cloudy
6:53 PM 88.0 °F 89.6 °F 64.9 °F 46% 30.04 in - East 9.2 mph - N/A   Clear
7:53 PM 84.0 °F 86.5 °F 66.9 °F 56% 30.06 in - East 10.4 mph - N/A   Clear
8:53 PM 82.0 °F 84.5 °F 66.9 °F 60% 30.08 in - East 10.4 mph - N/A   Clear
9:53 PM 81.0 °F 83.3 °F 66.9 °F 62% 30.10 in - ESE 10.4 mph - N/A   Clear
10:53 PM 79.0 °F - 64.9 °F 62% 30.12 in - SE 9.2 mph - N/A   Clear